Theta_e
307 308 308 308 308 308 308 308 308 307 306 307 307 308 308 309 309 309 309 309 309 309 309 309 309 309 309 310 309 310 309 308 309 308 312 315 310 312 311 309 308 309 311 312 312 314 313 313 312 312 313 313 315 316 313 317 317 316 322 321 317 316 316 316 317 316 314 314 313 312 311 312 314 312 326 348 356 354 356 357 351 350 351 350 347 344 343 343
307 307 307 307 307 307 308 308 307 306 307 307 307 307 308 309 309 309 309 309 309 309 309 309 309 309 308 309 308 309 309 308 309 312 316 312 312 315 312 309 310 310 311 310 310 311 313 314 311 312 315 315 313 314 315 316 317 319 319 317 318 317 315 314 316 314 311 313 312 312 311 311 314 309 321 349 358 357 360 356 352 354 351 347 345 344 344 344
306 306 306 306 306 306 307 307 307 307 308 308 306 306 307 308 309 309 309 309 309 309 308 309 309 309 308 308 308 309 310 308 314 320 319 313 313 315 312 310 310 311 311 310 309 309 311 312 310 313 317 317 315 315 316 316 316 319 318 317 318 315 314 313 313 313 312 312 311 312 311 312 313 310 328 352 357 360 360 355 353 355 354 348 345 344 345 345
306 306 306 306 306 306 307 306 306 306 306 307 306 306 306 307 308 308 309 308 309 309 309 309 308 309 308 307 308 310 309 312 316 316 317 315 312 315 313 310 311 310 311 310 309 309 309 309 310 314 317 318 317 315 316 317 316 316 318 320 317 312 313 313 311 313 314 311 311 312 311 313 311 317 344 356 353 360 357 352 352 353 355 349 345 345 345 341
305 306 306 307 307 307 307 307 307 307 306 307 307 307 307 307 308 308 308 308 308 308 308 309 308 309 308 307 310 310 309 312 315 314 313 311 311 315 313 312 312 310 311 310 308 309 309 309 312 315 317 318 316 316 318 318 315 315 318 319 316 313 313 313 311 314 314 311 311 312 312 313 311 319 346 356 350 356 354 350 350 350 351 347 345 345 341 339
305 305 306 306 306 306 307 307 307 307 307 307 307 307 307 307 307 308 308 308 308 307 307 308 308 308 307 307 310 310 307 306 309 309 308 309 311 314 313 314 314 311 312 310 308 309 309 310 312 315 317 317 317 317 318 317 314 316 320 319 316 314 313 312 313 314 313 312 311 312 312 311 312 311 328 353 354 348 348 350 350 348 348 346 345 343 339 339
305 305 306 306 306 306 307 306 306 306 306 306 306 306 307 307 307 308 308 308 308 306 307 308 308 307 307 307 311 313 310 308 307 305 308 313 314 313 312 315 316 314 313 309 308 309 310 311 312 316 316 316 317 317 317 317 315 316 319 319 317 315 314 314 314 314 312 311 311 311 310 310 313 309 321 347 351 346 348 351 349 347 346 345 343 341 339 339
304 304 304 305 305 306 306 306 306 306 305 305 305 305 306 306 306 306 306 307 307 307 307 308 308 307 307 308 312 313 310 308 307 309 313 316 315 312 312 316 316 315 312 309 307 308 311 311 311 313 315 315 316 316 315 315 316 316 317 316 315 316 315 314 313 313 313 311 310 309 311 312 311 311 320 329 338 348 351 350 348 347 345 342 341 340 339 338
301 301 301 301 301 303 304 305 305 306 305 305 305 305 305 305 304 304 304 304 305 305 307 308 308 306 307 309 308 306 306 306 309 314 316 317 314 312 313 315 316 315 312 310 307 307 310 312 312 312 313 315 314 315 315 315 317 318 318 316 316 316 315 313 312 313 313 311 310 309 312 312 309 313 315 320 340 351 351 349 349 346 344 342 339 339 339 337
299 299 299 299 299 301 303 304 305 305 305 305 305 305 305 304 303 303 302 303 303 303 306 308 308 306 307 310 307 304 307 307 310 315 315 317 314 312 313 314 316 315 312 310 307 307 309 310 312 312 313 314 312 313 315 315 318 317 317 316 315 314 312 311 311 312 311 309 311 310 312 311 309 313 311 323 344 350 350 350 350 345 342 340 338 339 338 335
298 299 299 298 299 300 302 304 305 304 304 305 304 304 304 304 303 302 301 302 302 303 306 308 307 307 307 311 310 305 306 307 311 313 313 315 313 312 312 312 314 314 313 309 307 307 307 308 309 312 313 314 312 312 313 314 314 313 313 312 312 312 310 310 310 311 310 309 313 310 312 312 309 313 310 330 347 350 351 351 349 345 340 339 339 339 337 334
297 297 297 298 299 300 301 304 304 304 304 304 304 304 304 303 302 300 301 302 302 303 306 307 307 307 307 310 312 307 305 310 312 311 311 312 309 309 309 311 313 313 313 310 308 308 307 308 310 313 314 314 314 313 312 312 310 310 311 310 313 313 311 312 311 312 310 310 315 311 312 313 313 315 311 333 350 350 350 351 349 345 339 340 341 338 336 334
297 297 297 298 299 300 300 302 304 305 305 304 304 304 303 302 300 299 302 303 304 304 306 308 306 306 307 310 309 305 304 307 308 308 309 308 307 308 308 310 311 312 314 311 309 309 308 309 311 314 313 314 316 314 311 311 310 311 311 310 312 313 313 312 310 310 309 310 314 311 312 316 321 318 310 330 351 351 350 352 349 347 342 342 342 339 336 334
296 296 297 297 299 300 299 300 303 305 305 304 304 303 301 300 299 298 302 303 303 304 307 308 306 306 309 310 305 303 305 306 307 306 306 306 307 309 310 310 310 311 313 312 310 309 308 308 310 312 312 313 314 312 312 312 312 312 310 311 311 311 316 315 311 312 310 311 313 310 313 315 321 318 309 329 350 350 351 351 350 349 343 344 344 340 337 334
296 296 298 298 299 299 298 299 303 304 305 305 303 302 300 298 298 299 301 302 302 305 307 306 306 309 313 311 306 307 310 310 310 310 308 309 308 310 311 310 311 311 311 311 310 308 307 308 310 312 312 312 311 311 314 315 317 316 311 315 316 312 315 316 313 313 312 312 311 310 314 314 317 316 311 330 350 349 350 350 350 350 346 346 344 342 339 336
296 298 299 299 299 299 299 300 302 303 304 304 302 300 299 300 303 304 304 303 304 307 307 306 306 309 314 312 308 309 311 311 313 315 314 312 310 311 311 310 310 309 309 309 309 307 308 308 310 313 312 311 311 311 314 317 322 322 313 314 319 314 312 314 312 313 311 311 312 310 313 314 316 316 310 326 349 349 349 350 349 350 348 346 344 342 340 338
298 299 300 300 300 300 301 302 303 303 303 302 300 299 301 305 308 306 305 305 307 308 307 309 308 307 310 308 309 311 311 312 313 315 315 313 313 312 310 311 310 308 308 307 308 307 307 309 311 315 315 313 315 315 316 317 321 323 317 315 319 316 312 313 313 313 310 310 312 311 312 314 315 318 309 318 343 350 349 351 349 350 349 347 345 342 340 339
300 300 301 301 301 302 303 303 303 303 302 301 300 301 305 309 308 306 307 307 308 307 308 310 308 307 308 310 311 311 311 311 312 312 313 314 315 313 311 312 311 310 310 310 310 309 309 311 312 317 317 312 313 315 317 321 321 319 315 314 318 317 313 313 313 313 312 311 313 312 313 315 315 316 310 312 335 348 349 349 348 349 349 347 345 343 340 339
301 301 301 301 302 302 303 303 303 302 300 300 300 304 310 310 308 308 307 308 311 312 313 313 309 306 308 311 311 311 310 310 311 311 312 314 314 313 311 311 313 314 314 315 314 311 312 313 312 314 315 314 315 314 315 320 320 314 312 313 316 314 312 311 311 313 312 310 313 313 314 317 314 315 313 311 328 345 348 347 347 349 350 348 346 344 341 340
303 302 301 301 301 302 303 303 302 301 300 300 302 306 310 310 312 312 309 311 315 314 313 315 313 310 311 312 310 310 310 310 311 312 313 315 313 311 312 312 314 315 316 320 316 312 313 315 315 315 316 319 321 319 316 316 314 311 311 313 313 312 311 310 310 313 312 311 316 318 315 317 316 316 315 313 324 339 344 346 347 348 350 349 346 345 342 340
302 303 302 301 301 301 302 302 301 300 301 302 302 306 308 307 312 312 307 310 311 309 311 312 312 312 311 310 309 309 311 311 311 311 312 313 312 312 313 314 315 317 318 319 317 312 312 316 317 317 320 325 327 324 318 313 312 311 312 313 313 312 311 309 309 311 311 312 320 321 316 317 318 317 316 315 323 334 338 343 346 347 349 348 346 345 342 340
302 302 302 301 301 302 302 302 300 300 302 303 302 306 307 304 307 307 305 309 308 306 309 309 309 310 309 309 309 309 310 311 310 310 310 311 313 313 314 314 316 319 316 315 316 313 314 317 316 317 321 322 324 324 319 314 314 313 313 313 313 313 312 312 312 313 312 313 320 321 316 316 316 315 315 315 318 323 329 338 344 347 348 347 346 344 342 340
302 302 302 302 302 302 301 300 300 302 304 303 301 303 305 304 307 306 305 310 310 307 308 309 309 310 309 309 309 310 311 311 310 310 310 311 314 313 313 313 315 316 315 315 318 317 317 319 315 316 319 316 315 319 318 314 314 315 314 313 313 312 311 314 315 317 316 315 317 317 316 317 317 317 317 316 316 314 318 330 339 344 347 346 345 343 341 340
301 301 301 302 302 302 300 299 302 305 303 301 302 305 305 305 308 308 308 312 313 311 308 308 309 310 310 309 308 310 311 311 310 310 310 312 312 312 312 313 314 313 314 316 317 317 317 315 313 314 316 315 313 315 315 312 315 320 318 313 313 312 311 313 313 315 319 321 320 315 317 323 323 323 321 319 318 312 311 322 335 342 344 344 343 341 339 339
301 301 301 302 302 302 299 301 305 304 301 301 304 305 304 305 307 307 310 314 315 314 310 308 308 310 310 309 309 311 311 311 311 310 310 311 311 311 312 312 313 313 313 314 314 316 316 314 314 313 313 313 313 315 317 315 316 320 320 316 312 312 313 313 312 313 319 325 321 314 319 328 327 326 322 319 324 324 319 320 330 340 344 342 343 342 339 338
301 301 301 301 302 301 299 304 304 300 302 304 305 305 303 306 308 307 312 318 318 317 314 310 309 310 309 309 310 311 310 310 311 309 310 311 311 312 313 311 313 313 312 312 314 314 314 313 313 314 315 313 312 315 317 316 314 315 320 320 313 311 313 313 312 314 320 323 319 315 318 322 322 323 321 321 332 340 333 329 331 340 343 341 342 341 339 338
301 301 302 301 301 301 303 306 301 300 306 307 303 304 304 307 307 306 312 319 319 317 314 309 309 309 309 309 311 309 308 309 310 310 310 311 311 312 314 313 312 312 312 314 316 315 313 313 313 313 315 314 312 313 314 314 314 316 322 322 315 313 313 313 313 315 321 322 322 324 320 316 319 323 322 325 338 343 339 338 337 339 341 341 342 340 338 338
301 301 302 301 302 302 303 303 301 302 306 304 303 305 307 308 307 310 314 313 310 312 312 310 309 308 308 309 310 309 308 309 311 311 310 311 312 312 315 315 313 313 313 315 317 316 314 315 315 313 313 313 312 314 314 312 312 316 322 319 314 313 313 314 315 318 320 317 320 326 319 314 325 333 329 332 345 346 341 339 338 338 340 342 343 340 338 337
300 301 302 301 302 302 302 302 302 303 302 302 304 307 308 306 306 313 315 310 308 310 310 309 308 306 308 310 310 310 309 310 311 311 310 311 311 312 314 314 313 312 311 313 317 315 313 315 314 312 313 314 313 314 314 312 312 315 318 316 313 316 317 316 317 319 318 316 317 323 320 314 323 339 340 340 346 343 337 333 335 339 340 342 343 340 338 337
301 301 302 302 301 302 302 301 302 301 301 302 306 308 306 309 315 314 310 310 311 310 308 308 307 304 307 309 309 311 310 310 312 311 311 312 311 312 313 312 314 316 314 312 314 314 313 314 313 312 314 313 312 312 311 312 312 312 313 314 314 320 322 322 325 322 316 318 318 320 324 317 318 332 337 337 339 335 331 331 334 340 341 342 343 340 338 336
301 301 301 302 302 302 302 302 302 303 303 302 306 308 304 310 319 316 310 310 310 310 308 305 305 304 305 304 306 310 310 310 311 311 312 313 313 313 314 313 315 317 316 314 314 316 314 312 313 315 316 312 309 310 310 309 310 310 316 317 316 321 320 321 328 323 316 322 323 320 322 317 317 330 332 331 333 332 332 330 333 341 343 342 342 338 337 336
301 301 301 302 302 302 303 303 303 303 302 303 307 310 309 308 310 313 314 311 308 309 307 304 304 305 304 303 306 311 311 310 312 312 312 313 314 314 315 317 318 316 318 318 319 319 316 314 313 314 316 313 309 312 312 309 308 310 316 318 316 319 318 319 326 322 319 324 322 319 319 317 322 330 331 332 333 334 334 329 332 341 342 341 339 336 335 333
300 300 302 303 304 304 304 304 303 303 304 305 308 313 315 310 307 311 313 310 307 307 305 305 305 304 304 305 308 310 311 312 313 313 313 313 314 314 313 317 318 318 322 321 317 317 319 319 313 310 314 313 311 314 314 313 312 310 314 317 317 319 319 322 325 320 320 322 318 315 316 319 328 330 330 334 334 335 336 333 336 341 340 338 335 333 332 329
300 301 302 305 306 305 305 305 304 305 305 306 310 311 306 305 308 310 312 312 310 306 305 305 304 304 305 307 308 308 312 316 315 313 314 314 315 315 314 314 314 317 322 318 316 319 320 322 318 313 314 313 311 312 313 316 315 310 313 315 317 324 324 324 325 320 318 321 320 319 317 322 334 335 332 334 334 334 337 335 336 337 334 333 331 330 330 327
300 301 304 307 307 307 307 306 305 307 306 308 314 309 304 306 308 309 311 312 308 305 306 305 303 306 310 310 309 307 310 317 319 317 316 315 317 320 318 314 314 317 319 318 318 317 315 319 322 315 311 311 311 313 313 315 315 312 313 314 314 322 325 322 322 322 322 323 324 325 325 326 331 334 331 333 334 333 334 332 332 332 330 329 330 329 329 328
300 304 307 308 308 309 307 306 307 306 306 312 314 308 310 311 305 306 310 308 305 305 306 307 307 307 311 312 310 307 309 316 321 320 318 316 316 319 318 315 314 315 316 320 321 316 314 319 323 316 313 313 313 314 314 313 317 315 312 315 315 315 321 322 318 318 321 322 321 324 332 332 329 330 330 332 335 334 333 332 330 330 329 329 330 330 330 329
301 307 310 309 309 309 305 307 308 306 307 313 310 307 312 310 304 307 309 305 306 305 304 309 311 307 307 311 312 308 308 315 319 319 322 321 318 320 321 318 315 313 314 318 321 318 316 321 324 316 313 315 312 312 312 311 315 318 315 317 315 311 318 326 325 324 321 321 325 328 337 336 331 333 335 333 336 335 333 332 330 328 329 329 330 330 330 330
302 307 312 312 311 308 308 310 309 309 313 314 311 311 311 308 305 307 307 305 308 306 305 308 311 308 307 311 315 312 309 312 316 321 325 324 320 321 324 322 317 317 315 313 317 318 314 318 327 318 312 316 316 312 314 313 312 317 319 317 315 317 322 321 323 326 321 320 329 329 329 332 334 337 338 334 335 335 333 331 330 329 329 330 330 330 330 330
303 310 314 314 311 309 310 311 310 315 317 313 314 314 308 307 310 310 308 308 308 307 308 308 308 310 311 312 313 313 312 311 314 321 322 320 319 319 323 324 319 319 318 311 314 321 315 315 325 322 312 313 318 318 321 321 313 311 315 313 317 327 328 320 320 324 322 324 330 329 329 334 336 333 331 330 331 334 333 331 331 331 330 330 330 330 330 330
306 315 316 312 311 309 310 311 315 321 317 310 313 314 309 309 313 311 311 310 308 309 312 310 307 310 315 314 310 310 312 314 316 321 321 319 321 321 321 322 320 320 321 316 318 324 319 314 321 329 321 314 318 320 321 323 316 312 314 315 319 324 321 320 320 319 323 328 329 330 335 340 335 327 327 328 329 332 332 331 331 330 330 330 329 329 330 329
309 318 316 311 311 310 311 315 317 317 315 312 313 313 312 312 312 312 312 311 311 311 311 311 310 312 314 313 311 310 311 314 319 322 321 320 322 323 321 320 320 322 324 324 323 322 321 318 321 330 328 320 321 319 317 318 316 317 321 322 326 327 321 321 321 317 322 327 328 332 340 341 333 325 327 328 328 330 330 329 329 329 329 329 328 328 328 328
314 319 313 310 311 309 313 318 314 311 314 316 314 312 312 313 312 313 313 311 311 311 309 310 311 312 312 310 311 311 310 312 317 320 320 319 319 320 318 318 322 323 324 325 321 321 326 326 323 325 324 320 318 317 317 317 317 321 326 326 328 330 326 325 325 325 322 319 323 329 335 337 329 323 327 328 327 329 329 328 328 328 328 327 327 327 327 327
319 317 310 310 311 310 314 317 315 314 315 316 313 311 311 312 312 312 312 311 312 310 309 310 310 310 310 309 310 311 310 311 315 319 320 319 319 316 315 319 322 320 324 326 323 324 329 326 323 327 331 328 324 322 319 317 320 325 326 325 325 327 330 331 330 332 329 325 326 327 329 334 330 324 327 327 325 328 328 328 328 328 328 327 327 326 326 326
317 312 312 312 310 311 314 315 315 315 317 317 315 313 311 310 312 311 311 312 313 311 310 311 311 309 309 311 311 312 313 312 313 317 318 318 318 316 316 321 321 319 322 325 323 324 326 323 321 324 329 329 328 329 325 322 326 326 324 326 325 323 328 327 322 323 325 325 327 326 330 335 330 325 327 326 325 327 328 327 327 326 326 326 325 323 321 321
313 311 314 312 309 312 315 314 315 315 315 316 315 313 312 311 311 310 310 313 312 310 310 312 311 310 311 313 314 314 315 313 313 315 317 318 318 316 316 319 322 324 325 324 324 325 326 325 323 324 328 328 327 329 326 323 325 324 323 327 325 322 323 322 321 323 319 321 326 331 336 334 327 326 329 327 325 327 327 326 323 321 320 320 319 317 316 315
314 314 313 311 310 313 312 311 315 314 313 314 312 311 311 312 311 309 309 312 310 308 310 310 310 311 311 314 318 319 316 314 315 315 315 317 317 316 316 317 320 324 326 325 326 328 328 324 323 326 329 326 324 322 319 318 323 325 326 327 324 322 323 325 330 328 321 323 330 334 333 330 327 328 329 327 327 327 325 322 318 315 314 314 312 311 311 311
314 314 313 311 311 314 313 312 314 313 310 310 310 309 310 311 311 309 309 310 308 308 310 309 308 310 310 312 316 317 315 315 316 314 312 313 315 315 316 317 317 321 325 324 324 329 332 325 321 322 321 318 319 318 316 318 321 321 322 323 320 320 325 335 337 328 320 324 330 329 326 327 328 328 328 329 327 324 320 316 313 311 310 310 309 309 309 308
309 310 311 308 308 312 312 309 312 313 309 309 310 309 310 311 310 309 309 310 309 308 310 311 309 307 307 308 310 312 313 314 313 312 311 311 313 315 317 319 318 319 323 323 322 329 334 326 319 321 321 318 319 319 317 319 318 314 315 317 317 318 324 333 333 324 321 325 329 327 325 326 327 328 328 325 321 317 313 310 309 309 309 308 308 307 307 307
308 309 308 306 308 312 310 307 311 313 309 309 311 310 309 310 309 307 308 311 312 310 309 310 310 307 307 308 308 309 311 311 310 310 310 310 312 313 315 319 319 317 322 325 321 322 327 323 319 322 322 319 319 319 318 319 320 316 312 312 314 318 320 322 322 319 321 327 327 325 325 323 321 322 322 317 313 311 310 308 307 307 307 307 306 306 306 305
309 309 309 310 312 311 311 311 312 313 310 309 309 307 308 309 308 307 308 309 309 309 308 308 309 308 308 309 309 307 308 309 308 307 308 308 312 314 313 315 315 313 319 325 320 319 323 320 317 322 324 321 319 319 318 320 322 321 316 311 313 319 320 320 321 321 322 325 324 323 325 321 316 315 315 312 310 308 307 306 306 306 305 305 305 305 304 304
305 305 309 315 313 307 308 310 309 311 311 308 307 308 308 308 306 306 308 308 307 309 310 308 308 309 309 311 311 307 306 309 308 307 308 308 311 315 315 314 312 311 317 324 322 323 327 321 316 322 326 321 318 319 320 320 323 324 320 313 312 316 319 318 319 319 321 323 324 324 325 321 314 312 311 309 307 306 306 305 305 305 304 304 304 304 304 304
305 304 307 314 311 304 305 308 307 309 308 305 307 309 308 307 306 306 307 307 308 308 308 307 307 306 308 312 312 306 303 306 307 307 308 306 307 310 310 310 310 308 314 322 322 321 324 322 318 322 325 320 317 320 321 321 324 324 317 311 310 312 314 316 317 315 315 319 323 324 322 317 313 311 309 307 305 305 304 305 305 304 304 304 304 304 304 303
Wind_Speed
12 12 13 13 13 13 14 14 14 14 15 14 14 14 14 14 14 14 14 14 14 15 15 14 14 15 15 15 16 17 20 21 22 15 9 11 10 7 8 6 4 15 16 13 15 14 9 6 6 7 7 4 1 2 2 0 2 3 3 3 2 4 4 5 5 5 3 5 7 8 7 6 8 7 3 2 6 4 4 5 4 5 6 7 14 24 27 24
12 12 12 13 13 13 14 14 14 14 14 15 15 14 15 15 14 14 14 15 15 15 15 15 14 15 15 16 16 17 21 21 19 15 10 5 8 6 6 7 7 18 19 15 15 14 9 4 5 7 5 3 1 1 2 1 2 2 3 2 5 5 4 5 5 3 2 5 10 10 5 5 7 5 4 2 2 4 4 3 5 8 9 11 17 24 25 23
12 12 13 13 14 13 14 14 14 14 14 15 15 15 15 15 15 15 15 15 15 15 15 15 15 15 16 15 15 16 19 16 10 8 3 7 12 8 6 9 10 20 19 12 13 11 8 9 12 8 4 3 1 2 2 1 2 2 4 2 7 5 4 4 4 5 6 6 9 10 5 6 9 5 2 1 1 2 1 3 5 9 10 12 14 19 22 20
12 13 13 13 14 14 14 15 15 15 15 15 15 16 15 15 15 15 15 15 15 15 15 15 15 15 15 14 13 14 14 7 3 3 2 7 15 9 9 11 12 19 14 7 9 8 8 12 11 5 4 2 1 2 3 2 2 2 3 5 6 3 2 5 4 6 7 6 4 7 8 8 9 3 1 1 2 2 6 6 3 9 13 15 15 16 18 16
12 12 13 13 14 14 14 14 15 15 15 15 15 15 16 16 15 15 15 14 14 14 15 15 15 15 15 13 11 11 9 4 2 3 5 10 16 8 11 15 14 17 11 7 10 11 10 10 6 4 4 2 0 2 2 4 3 2 4 8 5 1 3 4 4 6 7 5 4 6 7 7 7 4 0 3 4 5 4 3 5 10 14 15 16 16 13 12
12 12 13 13 14 14 14 14 15 15 15 15 15 15 15 16 15 15 14 14 14 14 15 14 15 15 14 11 8 7 4 0 5 6 9 12 14 5 14 18 16 16 11 11 13 12 8 7 5 3 3 2 3 3 3 3 3 2 5 6 5 4 4 4 4 8 7 5 7 6 4 4 6 8 4 5 9 6 0 6 11 13 14 15 16 15 13 13
12 12 12 13 14 14 14 14 15 15 15 15 15 15 15 16 15 15 15 15 14 14 15 14 15 14 12 10 5 4 3 6 10 8 12 12 9 1 17 19 15 16 12 12 12 8 6 7 5 4 4 2 3 3 3 1 1 4 5 5 4 5 6 6 6 8 7 6 8 4 4 5 6 7 2 4 10 4 3 9 14 15 15 15 14 13 13 13
12 12 13 14 14 14 15 15 15 15 16 16 16 16 16 16 15 15 15 14 14 14 14 13 14 11 11 9 3 3 1 7 11 10 11 8 2 7 19 18 15 16 12 12 11 8 6 6 5 4 4 2 4 3 3 1 1 5 6 4 4 5 6 6 6 8 9 8 6 3 6 9 7 5 2 6 8 1 7 11 15 16 15 13 14 13 12 9
13 13 14 14 15 15 15 15 15 15 16 16 16 16 16 16 16 15 14 14 14 13 13 13 13 9 8 6 4 3 4 5 8 8 7 3 4 13 19 16 16 16 11 10 10 10 6 5 6 5 4 3 4 3 2 2 2 6 6 4 5 6 6 5 5 8 8 6 2 2 9 9 4 3 4 7 2 5 9 12 14 16 13 12 12 13 12 9
13 14 15 15 16 16 16 16 16 16 16 16 16 16 16 16 16 15 14 14 13 13 12 11 11 8 5 3 4 2 6 3 5 6 7 5 7 15 18 12 16 15 10 8 9 10 6 6 7 4 4 3 3 3 3 4 4 4 5 5 7 7 7 3 5 8 6 5 3 4 10 7 0 2 4 5 4 9 11 13 14 13 10 11 11 10 9 8
14 15 15 16 16 16 16 16 16 16 16 16 17 17 16 16 16 15 14 14 13 12 10 9 9 5 2 3 4 3 5 2 2 6 9 8 9 11 12 8 13 14 9 6 8 11 6 6 8 4 1 2 2 2 2 4 3 3 3 5 7 6 6 3 5 8 3 5 5 6 8 6 1 2 6 4 7 10 13 16 15 12 9 10 12 8 5 6
15 16 16 16 16 16 16 16 16 16 17 17 17 17 17 17 17 16 15 15 14 12 8 7 6 2 2 3 5 10 5 2 3 3 2 1 1 2 5 6 9 12 10 5 7 12 9 7 8 4 2 3 2 1 2 3 1 3 2 3 8 7 6 5 5 4 2 4 4 7 4 8 2 6 7 4 9 9 12 17 15 11 9 10 11 7 5 6
15 16 17 17 17 17 17 17 16 16 16 17 17 17 18 18 18 17 17 16 13 10 6 5 4 1 1 1 7 12 10 9 11 11 12 14 14 12 9 8 9 10 12 8 4 7 11 9 5 4 1 3 1 2 0 1 1 3 1 1 5 7 6 6 2 2 1 4 4 6 4 7 7 8 6 3 10 11 11 15 13 9 9 10 10 7 6 7
15 16 17 17 17 17 17 17 17 17 17 17 18 18 19 19 19 18 17 15 11 7 5 3 2 2 1 6 11 14 12 12 16 20 21 19 15 11 8 8 10 10 12 12 5 3 10 11 1 1 1 2 1 3 4 4 3 2 2 1 3 2 5 8 4 1 1 3 4 7 3 5 10 9 4 5 9 13 13 15 12 8 9 10 9 8 7 7
15 16 17 17 17 18 18 17 17 17 17 18 18 20 21 20 18 17 14 11 6 3 4 3 4 2 1 8 12 9 6 8 13 17 18 19 15 9 9 9 10 12 11 11 7 3 5 10 1 2 3 2 2 3 4 4 3 2 2 3 3 1 4 9 6 1 1 5 2 5 2 5 9 8 3 6 7 11 13 15 14 9 9 10 8 9 8 7
16 16 17 17 18 18 18 17 17 17 18 18 19 21 20 17 13 10 8 4 3 4 5 3 4 3 1 6 6 3 4 5 7 8 6 14 17 12 8 8 7 9 9 6 6 3 3 5 1 2 2 2 1 1 2 3 4 3 1 2 3 2 3 6 5 3 1 3 4 2 1 4 7 6 1 6 7 8 10 12 13 11 11 10 7 7 7 7
16 16 17 17 18 17 17 17 17 17 18 19 21 21 14 9 8 4 2 4 5 5 6 2 2 3 3 6 5 4 4 3 3 5 4 8 16 15 6 5 4 5 6 3 4 4 1 2 1 1 1 1 2 2 2 2 4 3 2 0 3 3 2 3 4 5 5 4 4 3 1 5 9 7 2 4 8 8 9 11 13 12 10 9 7 6 6 7
16 17 17 17 17 17 17 17 17 17 19 21 21 15 6 7 8 6 9 10 7 5 3 0 1 1 4 5 3 4 4 5 7 10 10 8 12 15 6 4 5 7 4 2 2 3 1 1 1 1 2 1 3 4 3 5 3 2 0 0 3 3 3 3 3 5 7 6 5 5 3 7 11 10 4 5 8 9 10 12 13 12 10 9 8 7 7 8
17 17 17 17 18 17 17 17 17 18 20 21 16 7 6 8 7 6 9 9 5 3 2 2 3 2 3 4 5 6 8 10 11 9 7 5 9 12 4 2 5 6 4 2 0 2 3 1 3 2 2 2 4 5 6 7 6 7 4 3 3 4 5 5 4 5 3 4 6 6 6 7 9 10 6 6 8 10 10 9 9 10 9 8 8 7 7 8
16 17 17 18 18 17 17 17 17 19 19 18 12 5 4 4 4 2 1 3 4 5 4 5 7 5 8 7 3 6 11 8 5 2 2 4 8 9 3 2 4 4 3 3 2 1 4 3 1 4 5 5 7 7 7 5 5 5 2 2 4 5 7 3 2 6 3 1 7 7 6 7 8 10 8 6 7 9 10 9 9 10 8 10 12 8 7 8
17 17 17 18 19 18 18 17 18 19 15 11 10 4 2 1 2 3 3 5 9 11 10 11 12 10 14 13 4 3 6 4 4 3 4 4 8 8 1 1 4 1 2 4 3 0 4 5 6 7 8 7 6 6 6 4 3 2 2 3 4 5 7 4 3 7 3 3 6 4 3 8 9 10 9 5 7 10 12 12 12 14 10 11 14 8 9 8
17 17 18 19 19 19 18 18 19 17 8 6 8 4 2 1 1 2 2 5 9 11 14 14 11 12 19 19 12 2 3 2 8 6 7 7 6 6 3 3 5 4 2 3 3 0 1 3 8 7 8 6 4 5 6 4 3 2 2 1 4 4 5 6 3 3 0 3 4 5 5 9 11 11 9 6 8 10 13 15 15 16 13 13 14 10 11 10
17 18 19 19 20 20 18 19 18 9 3 7 8 1 1 2 4 3 2 3 8 6 9 10 7 10 14 13 8 7 4 4 7 6 8 11 5 5 5 4 6 4 3 4 4 3 2 5 7 6 7 7 3 4 7 4 1 2 3 2 4 2 1 4 4 4 3 2 5 6 6 8 9 8 7 6 8 8 8 13 14 15 15 15 14 11 12 12
18 18 19 20 21 19 18 18 10 2 6 13 8 1 1 7 7 1 3 2 6 4 5 8 7 7 9 7 8 13 5 5 5 5 10 14 4 3 6 5 5 4 3 6 7 6 6 6 3 6 6 7 5 3 6 3 2 3 5 5 5 3 3 7 4 5 6 4 3 2 5 6 5 5 6 6 5 7 5 8 11 10 8 10 10 10 12 14
18 18 19 20 20 20 19 12 1 2 13 11 2 1 6 11 9 2 3 2 4 6 4 5 4 4 6 5 11 12 3 3 7 7 10 15 9 4 3 3 4 5 7 6 7 5 8 5 5 6 3 5 5 4 4 6 3 4 5 9 9 7 8 10 4 5 5 5 3 2 4 5 5 4 6 6 6 7 4 5 9 7 6 9 10 10 12 13
18 18 19 19 19 21 15 3 2 10 14 3 3 4 10 13 8 4 4 4 3 5 3 1 1 4 4 4 7 6 3 4 9 9 9 13 14 7 3 2 1 5 6 5 4 3 4 3 6 6 5 5 4 4 5 7 4 4 6 10 11 9 9 8 1 3 0 3 3 4 3 4 6 4 6 6 6 7 6 1 5 7 8 10 11 11 12 13
18 18 18 17 17 18 9 4 10 12 5 2 1 8 12 12 5 6 3 6 3 4 0 1 0 3 3 5 7 5 4 4 2 7 11 13 12 6 4 5 1 2 4 4 1 3 3 4 5 5 5 5 4 4 6 8 7 4 5 8 9 8 8 7 4 4 4 3 4 4 4 3 5 5 6 5 5 6 7 5 2 5 8 11 12 13 15 15
18 17 17 17 15 13 8 9 12 6 2 3 7 9 12 11 2 5 4 4 3 2 2 1 1 3 0 4 7 3 3 3 2 2 7 12 8 4 5 8 6 6 5 6 3 3 4 6 8 7 5 4 5 4 7 9 5 6 5 7 8 7 7 6 6 5 2 1 5 5 2 2 5 6 5 4 4 6 6 6 5 4 8 10 12 14 16 17
18 16 16 17 16 13 10 9 9 5 4 7 8 10 11 7 2 3 4 1 3 2 2 1 0 1 4 2 5 5 4 2 1 2 2 8 6 2 4 7 7 6 4 6 6 4 3 6 8 8 6 5 7 6 9 11 6 5 5 6 3 3 3 3 5 3 1 1 5 6 2 1 4 5 5 4 4 5 6 6 6 4 8 10 11 13 15 14
17 17 16 16 16 13 7 10 11 6 5 7 8 11 8 2 3 5 2 2 3 3 2 1 2 2 3 2 4 6 5 4 1 2 3 3 2 2 3 2 5 5 1 1 3 3 2 1 4 5 5 6 6 5 8 13 9 2 4 4 4 4 3 3 2 3 3 2 7 7 5 4 3 5 3 2 3 5 6 6 6 6 9 10 11 11 13 13
18 18 17 15 14 9 4 6 6 1 4 9 10 8 3 3 4 4 2 4 2 3 4 4 3 4 5 3 3 4 4 4 1 4 3 2 2 2 2 3 3 3 1 4 4 3 4 1 1 3 5 5 4 3 4 7 5 2 3 3 3 2 3 4 4 3 3 5 7 5 5 6 3 5 3 4 6 7 7 7 7 6 8 8 8 7 9 11
20 20 18 16 14 11 9 6 2 3 7 9 7 4 4 3 2 2 3 4 2 3 4 3 4 6 8 5 3 3 3 3 2 5 4 2 4 4 3 3 4 2 1 5 3 4 3 3 4 4 3 5 5 2 3 2 1 4 3 4 3 1 2 2 3 0 2 6 5 2 3 4 4 5 4 6 7 6 5 6 6 6 6 5 4 4 3 4
22 20 17 15 14 15 12 6 5 8 7 4 3 4 6 4 2 3 3 3 1 2 3 3 6 8 8 5 3 4 1 2 2 3 2 2 4 5 2 2 6 5 1 4 2 1 3 5 3 1 3 4 7 4 2 1 3 5 5 5 4 2 2 1 3 1 3 5 3 1 2 2 4 3 3 7 6 5 4 2 3 3 3 5 5 6 7 8
21 17 14 11 11 14 10 5 4 4 2 1 3 5 5 2 3 2 2 2 2 4 3 3 7 8 4 2 3 4 3 2 1 4 3 2 3 3 2 1 3 5 3 2 2 3 2 4 3 5 2 2 7 8 6 4 4 5 4 5 5 4 4 3 4 3 4 4 3 3 0 2 2 2 3 6 4 3 4 4 4 4 5 8 8 8 8 8
17 12 11 9 8 8 7 8 6 3 2 3 6 5 4 3 3 0 1 3 2 4 6 5 4 4 4 3 3 4 1 1 1 4 3 2 4 4 4 3 4 4 4 3 2 2 3 4 7 4 1 4 5 5 4 6 2 3 3 4 2 5 5 2 3 5 3 1 2 3 1 2 3 4 4 3 2 3 6 6 7 7 6 8 9 8 6 5
14 9 7 6 4 2 3 9 8 5 3 5 6 2 3 3 2 2 2 2 1 3 6 7 3 3 4 4 4 6 3 1 2 2 1 1 3 3 3 4 5 5 5 4 3 1 2 4 7 4 2 4 6 5 4 5 3 1 3 3 4 4 7 4 2 0 3 1 3 1 2 4 3 3 4 1 2 5 7 7 8 8 7 7 7 8 8 6
14 8 2 2 1 2 5 9 9 5 3 6 4 2 3 2 3 4 1 1 2 2 3 3 2 2 3 3 4 6 4 3 3 1 0 1 2 2 2 1 3 6 7 4 2 3 3 3 6 2 4 6 4 4 2 2 5 4 3 5 2 2 4 4 2 3 4 2 4 1 1 4 1 1 3 3 3 5 7 7 8 9 9 8 5 3 8 7
13 7 2 1 2 6 8 9 7 4 4 5 2 1 2 1 2 3 1 1 1 1 3 1 2 1 2 2 4 5 4 3 3 1 1 1 2 2 2 1 1 3 6 6 2 2 3 1 6 2 4 7 2 3 2 4 1 3 4 4 3 2 1 1 2 1 1 2 3 2 2 2 2 3 2 3 3 5 7 8 9 9 8 6 3 2 4 6
7 3 2 2 4 8 8 7 3 3 5 3 0 1 2 2 3 4 2 1 0 1 1 2 2 1 2 2 4 5 3 1 1 0 1 1 2 2 1 2 2 1 2 7 5 2 2 1 5 4 4 4 5 3 1 3 3 2 3 2 2 2 4 2 2 3 3 3 2 2 2 2 4 4 1 1 3 5 7 8 9 8 6 6 4 3 4 5
2 1 2 2 6 11 8 4 3 4 4 1 2 2 2 2 3 5 3 1 1 1 1 3 2 1 3 3 4 4 2 0 1 1 1 1 1 2 3 1 1 0 1 5 5 1 3 2 4 5 4 2 2 2 2 4 2 2 2 2 1 1 2 2 1 2 3 4 2 1 1 5 5 2 0 2 2 4 7 8 8 7 6 6 6 6 6 6
1 3 2 2 8 12 6 3 3 3 2 0 2 2 2 2 2 5 5 3 3 3 3 3 3 2 3 3 3 3 1 1 0 1 1 0 1 0 2 1 1 0 3 5 3 1 2 2 3 2 4 2 3 5 3 4 4 4 4 4 3 3 4 3 1 1 2 3 3 4 2 6 4 1 1 1 2 4 7 8 7 7 8 7 7 7 6 7
3 2 3 1 11 10 4 3 1 1 2 1 2 2 2 2 1 4 4 1 2 2 1 2 3 3 4 3 3 2 2 2 1 0 0 0 1 1 3 3 1 3 2 1 1 2 3 4 2 1 2 3 6 7 3 1 2 3 2 3 3 3 4 5 3 3 1 2 2 3 1 5 4 0 1 1 3 3 5 8 7 6 7 7 8 6 5 6
3 1 2 5 12 5 5 2 2 3 1 2 2 2 2 1 1 3 3 2 1 1 1 1 3 3 3 2 2 2 2 1 1 1 0 1 1 1 5 5 2 4 3 1 2 1 2 3 2 2 4 4 5 6 4 3 4 3 2 2 2 1 3 5 5 4 3 3 2 2 0 4 4 1 1 3 3 3 5 7 7 7 5 6 7 6 5 4
3 1 1 6 9 1 3 1 2 3 3 3 3 3 2 1 2 2 2 2 2 1 1 2 1 1 2 1 0 1 2 1 1 3 1 2 3 3 6 6 1 3 1 2 3 1 0 1 2 1 3 4 5 5 5 5 4 2 2 4 4 2 4 4 2 3 2 3 4 4 2 5 3 1 2 4 5 6 6 6 5 6 6 5 5 6 6 5
2 1 1 1 3 0 2 3 3 1 2 3 3 4 4 2 2 2 2 2 2 1 1 2 2 1 2 2 2 2 2 0 0 2 2 3 5 4 7 9 3 3 1 1 2 2 2 1 2 3 3 2 2 2 3 3 2 1 2 5 5 4 3 3 3 4 1 2 3 4 4 4 1 1 2 5 6 6 6 7 7 6 5 5 6 6 6 6
3 2 1 2 2 3 1 1 4 3 1 1 2 3 2 2 4 3 2 1 2 2 1 2 3 2 2 4 3 3 3 2 1 3 3 3 3 3 6 8 5 5 4 4 6 4 3 2 2 4 4 4 5 5 5 2 1 2 4 6 6 5 3 2 4 2 3 2 2 2 4 2 2 2 2 5 6 6 6 8 9 8 7 7 7 6 6 7
2 1 2 2 2 2 1 2 3 3 1 2 1 2 2 3 4 3 1 0 2 3 2 1 4 4 3 4 3 3 4 4 4 4 3 3 2 4 8 5 5 9 6 4 5 3 4 3 2 5 4 1 3 5 4 1 3 1 3 6 7 8 6 4 4 3 5 5 1 5 3 5 5 4 4 5 6 6 7 9 8 7 7 7 7 8 9 8
2 1 2 2 1 0 1 2 2 4 2 1 1 1 2 3 3 2 3 2 2 3 2 2 5 5 3 3 1 2 4 5 4 3 3 4 2 4 8 4 4 9 6 3 4 3 5 2 1 4 2 2 3 3 1 5 4 3 5 6 8 9 7 5 2 2 4 5 3 4 5 5 3 2 4 6 7 8 9 9 8 8 9 8 8 10 10 8
2 2 0 2 1 3 1 0 2 5 3 1 1 1 1 3 4 2 2 2 4 4 2 1 5 6 5 3 1 1 3 3 2 3 2 3 3 2 4 5 5 7 6 4 3 2 4 1 1 3 3 4 5 4 3 5 4 3 6 7 8 8 7 6 2 1 2 4 5 6 7 5 3 3 5 7 9 9 9 9 10 10 10 9 10 12 11 9
2 2 1 2 3 1 1 2 3 4 2 2 2 2 1 1 3 4 2 1 1 3 2 1 5 6 4 4 3 3 2 3 2 3 1 1 2 0 0 1 3 7 6 3 2 2 3 2 0 3 3 3 5 4 4 4 5 5 7 9 10 8 7 7 4 2 3 4 8 9 7 4 4 4 6 8 8 10 11 11 11 10 9 10 12 13 10 9
2 2 2 4 3 4 3 2 3 3 2 3 1 2 2 2 3 3 3 1 3 2 1 1 4 5 3 4 4 3 1 5 6 6 5 3 2 2 2 1 1 4 6 3 2 3 3 2 1 3 3 1 4 4 5 4 4 6 7 10 10 6 4 3 3 3 3 2 8 8 4 2 1 3 8 9 9 12 12 10 10 9 8 9 11 11 10 7
2 2 2 5 3 3 2 2 3 3 1 1 2 2 2 2 4 2 1 3 1 2 4 2 0 1 3 4 5 5 5 6 8 7 5 4 4 4 4 4 2 3 3 1 2 2 2 3 2 2 2 1 4 3 4 4 3 3 4 6 6 4 2 2 2 5 6 1 4 4 3 3 3 5 8 9 10 12 11 9 8 8 8 9 9 9 9 8
Wind_Direction
352 351 350 349 347 347 345 344 345 344 345 344 345 345 343 344 343 344 343 342 341 338 336 333 329 328 327 328 329 330 329 323 318 313 287 291 313 304 257 250 197 173 159 141 146 139 123 117 123 126 125 112 38 142 148 177 92 67 92 117 202 215 207 188 188 195 220 300 307 322 358 357 321 330 322 29 31 10 9 18 36 44 53 94 118 128 134 136
351 350 349 348 347 347 346 345 344 344 344 343 344 344 342 342 341 343 342 342 342 339 339 335 332 332 330 333 334 334 328 320 313 292 276 334 353 326 240 208 188 177 163 147 153 146 130 141 137 120 106 98 333 106 150 226 119 112 113 142 226 207 210 195 189 236 276 293 303 312 355 360 308 312 324 313 354 355 13 28 82 88 87 102 115 122 126 129
352 351 350 348 348 348 347 345 344 343 343 343 343 342 342 341 340 341 340 341 341 340 340 337 337 334 333 337 338 336 326 321 316 283 283 25 4 339 208 183 180 180 171 159 166 159 145 157 147 126 88 101 205 121 146 208 164 176 117 183 240 197 213 236 225 254 262 272 301 308 337 348 304 288 322 291 118 16 246 199 124 129 129 121 120 120 123 124
353 351 349 349 348 348 347 346 345 344 343 343 343 342 341 340 339 339 339 339 338 338 338 338 339 336 338 341 342 337 330 335 319 287 14 355 352 349 184 164 165 177 173 163 173 165 134 139 138 112 93 107 316 103 153 219 192 187 145 208 235 159 228 266 250 256 267 273 286 300 327 326 301 300 38 102 134 273 234 225 167 149 140 131 129 128 129 126
354 351 349 348 346 346 346 345 344 343 342 342 342 340 338 338 338 337 337 336 336 338 337 338 339 338 342 346 349 341 343 26 293 305 354 339 347 347 172 151 155 169 162 144 153 145 123 124 117 68 87 113 30 96 206 225 156 166 235 238 248 258 280 275 262 269 270 287 300 302 320 305 303 319 310 145 204 245 232 177 116 136 136 135 136 136 133 132
353 352 349 346 345 345 343 343 342 341 340 339 339 338 336 335 335 335 334 334 335 337 337 338 339 339 345 352 354 351 15 318 289 315 330 326 339 342 162 153 154 160 154 141 140 137 117 102 101 101 96 100 154 159 236 236 145 210 263 263 257 246 257 267 269 281 284 310 302 288 304 301 321 309 258 188 223 247 242 119 121 134 134 133 138 141 143 153
352 350 348 345 345 343 342 342 340 340 340 338 338 336 335 333 333 332 332 333 333 335 337 335 338 341 347 356 356 18 70 256 286 315 319 319 338 60 158 160 160 161 158 142 136 136 118 103 118 135 108 100 167 188 228 247 126 212 260 285 264 232 227 246 256 278 290 278 270 281 329 303 288 293 290 206 236 255 87 120 127 137 131 132 143 150 158 161
351 349 347 346 344 342 342 340 339 339 338 337 336 335 333 332 332 331 331 331 330 332 334 334 338 342 349 1 15 1 304 255 296 325 321 319 358 153 161 163 166 167 162 153 146 140 125 124 155 146 113 185 176 172 208 66 29 221 244 280 267 246 234 251 264 276 281 265 266 308 297 277 248 248 276 253 257 98 118 126 131 139 133 139 151 158 165 154
350 349 348 346 344 344 341 338 338 337 336 335 334 333 330 330 329 330 331 328 329 328 329 334 333 339 353 5 52 347 269 263 325 347 351 8 132 161 167 166 171 173 163 163 156 150 152 159 185 170 152 193 173 177 188 147 261 227 224 255 256 268 269 275 274 267 275 268 284 321 281 283 257 214 266 271 264 117 129 127 137 140 137 146 155 165 167 151
349 348 346 345 344 343 339 337 336 334 334 332 330 329 326 326 326 327 329 325 325 323 325 332 326 335 350 2 71 343 274 306 3 29 51 80 127 162 173 172 177 178 162 166 168 164 167 177 182 160 151 155 162 185 145 161 216 214 212 254 251 267 281 267 264 268 282 280 247 252 272 285 299 174 270 278 126 133 130 129 145 136 132 148 159 172 160 147
348 348 346 344 343 340 338 336 334 333 331 329 327 325 323 322 322 324 324 320 318 315 317 324 322 335 9 65 105 241 274 331 28 51 69 92 103 149 178 188 189 187 171 167 193 190 179 177 164 121 176 179 155 192 181 195 221 239 248 286 276 287 292 242 249 266 271 279 228 195 262 298 70 196 242 224 136 141 136 141 153 136 133 153 164 169 134 143
347 347 344 343 340 337 336 334 332 331 328 326 324 321 320 319 320 322 316 311 309 305 301 312 320 342 44 70 196 240 263 266 273 359 53 152 24 253 237 235 213 207 198 182 212 210 203 195 163 138 229 165 117 310 212 212 260 277 268 293 294 329 321 262 247 257 176 248 213 148 291 311 241 224 248 191 136 141 141 150 157 141 146 161 168 165 124 154
344 344 343 340 337 336 335 334 331 329 327 324 321 319 319 319 322 319 309 302 300 293 285 297 303 259 352 245 238 262 273 264 269 276 267 268 279 285 276 250 235 230 224 213 216 221 215 214 180 178 194 113 189 282 231 16 356 292 284 170 311 348 322 286 295 342 119 232 186 141 277 291 261 259 267 198 141 140 146 159 160 142 152 168 172 169 146 159
342 342 339 337 336 335 334 334 331 329 327 324 322 322 322 324 322 312 302 295 288 275 266 273 240 157 187 251 270 289 288 267 262 260 256 259 266 276 269 242 232 228 231 227 228 310 226 212 163 122 213 109 205 308 349 358 12 321 292 258 351 359 285 302 315 6 339 264 153 142 233 268 275 285 257 200 155 148 157 167 167 151 158 173 180 179 163 163
341 340 337 336 334 334 334 334 332 329 328 326 325 326 326 324 317 307 297 286 274 240 208 196 183 149 327 278 283 290 273 256 261 263 255 247 245 251 251 231 223 222 226 228 224 328 221 197 111 55 248 299 55 4 343 346 2 20 299 299 346 173 268 310 313 138 254 290 80 122 230 271 277 289 215 187 165 157 164 170 174 166 165 173 181 186 177 166
338 337 335 334 333 334 333 332 332 330 328 327 326 328 328 325 322 312 298 265 196 176 169 170 193 171 294 284 299 297 245 254 275 294 261 232 228 228 230 206 203 211 212 223 211 223 187 171 165 144 209 303 118 72 5 358 341 3 48 273 299 278 289 319 317 333 303 292 5 63 231 285 283 287 200 177 175 168 170 177 180 176 175 176 176 182 178 166
334 334 333 333 332 332 330 331 331 329 330 328 327 331 335 347 3 10 55 114 142 162 152 144 191 186 264 271 291 295 274 277 303 328 314 244 226 213 184 152 149 159 171 154 161 192 196 165 217 170 51 25 139 112 50 302 289 323 17 286 267 261 268 314 298 322 19 44 354 358 198 254 273 285 305 191 187 174 178 187 188 185 179 177 177 175 173 173
330 331 330 330 330 329 329 329 329 331 333 330 331 340 13 59 51 75 106 110 114 125 135 317 164 192 271 266 283 293 303 317 316 309 297 273 222 202 172 115 121 112 112 82 126 149 130 255 80 54 355 52 128 115 158 227 209 193 275 58 293 283 242 241 251 301 3 18 339 339 300 257 268 282 283 216 197 184 193 194 191 191 181 175 180 180 178 178
328 328 328 328 328 328 329 327 329 334 334 333 340 13 82 80 73 94 112 115 107 115 198 228 175 187 264 260 268 291 310 313 306 295 267 233 193 187 171 97 110 103 96 66 235 162 140 64 63 114 247 201 180 165 181 202 164 158 169 168 230 283 266 226 224 270 325 349 310 291 272 264 273 282 269 219 203 197 201 197 192 194 183 176 185 187 177 173
325 325 326 326 326 327 328 327 330 334 334 338 354 61 94 52 51 39 103 172 200 219 225 203 195 232 283 278 272 306 313 311 293 270 173 172 157 153 135 73 78 75 126 153 197 201 135 141 179 206 206 186 198 194 179 175 142 142 163 214 231 257 275 252 223 258 215 228 279 255 250 265 270 276 266 221 202 206 202 193 195 196 186 184 192 188 160 160
324 325 325 326 326 327 327 326 331 334 334 345 6 51 121 54 56 330 294 259 240 226 235 229 209 226 254 254 247 359 343 326 282 255 217 200 137 137 187 119 103 115 219 161 158 69 107 164 224 219 190 176 186 181 157 143 133 140 196 270 276 245 268 287 243 256 203 166 260 270 304 284 271 270 268 213 188 210 203 191 196 198 193 190 192 173 139 145
325 325 325 326 325 325 325 328 331 330 331 3 16 42 186 125 87 278 265 293 268 219 225 235 223 239 248 252 258 240 60 325 291 281 206 185 145 166 210 123 145 203 214 108 116 73 84 211 230 212 179 158 123 124 128 134 158 147 141 231 274 254 286 300 275 280 107 151 262 307 328 287 276 274 269 222 202 220 207 193 194 193 191 193 190 162 140 144
325 326 327 325 324 323 326 331 330 328 357 353 349 12 195 354 334 290 171 290 287 224 216 226 218 239 249 264 248 175 150 209 262 287 175 159 156 178 165 154 175 165 123 147 164 172 208 246 226 188 158 145 127 122 122 112 132 161 157 186 261 263 347 291 294 331 324 245 253 291 308 281 284 294 287 253 234 248 229 203 199 194 192 193 185 160 147 150
325 327 326 324 323 324 330 334 332 10 347 327 314 214 16 346 344 358 151 259 289 274 228 208 199 225 245 259 179 163 186 194 204 259 172 153 139 151 163 173 159 145 189 187 170 180 224 237 166 129 140 156 183 177 137 156 267 246 203 204 241 243 207 239 280 339 325 308 249 290 333 296 305 323 301 293 284 286 261 211 209 202 183 170 160 152 154 159
325 326 324 325 325 327 334 337 9 8 331 319 263 58 351 340 346 131 149 351 292 286 269 202 196 224 225 202 169 166 177 210 213 219 169 160 157 139 170 169 135 189 213 172 147 201 242 226 128 118 144 159 184 219 181 180 225 288 233 211 220 220 226 244 288 13 357 334 298 41 24 300 308 320 291 315 339 326 309 211 203 188 145 145 150 155 161 165
324 323 323 325 325 331 340 335 289 331 325 298 146 338 327 334 346 159 143 30 309 286 314 183 194 217 204 159 171 158 109 256 229 191 172 177 171 145 147 168 130 203 195 149 142 215 251 195 151 161 163 150 171 238 224 170 155 281 241 205 209 212 229 247 238 78 19 266 296 49 97 268 307 323 295 316 351 343 345 333 196 177 151 157 161 158 161 166
321 320 322 321 325 337 345 295 311 322 313 179 305 315 319 335 358 164 122 29 304 270 89 310 189 182 206 175 176 150 149 271 248 170 188 187 173 138 150 176 149 186 162 118 173 234 182 152 167 169 146 149 177 244 223 156 134 250 230 178 186 200 220 226 160 165 232 259 318 18 123 230 294 289 287 319 8 360 358 356 257 195 168 164 162 162 167 172
318 318 318 315 320 325 308 289 303 300 230 307 313 310 323 339 36 157 81 50 272 282 77 321 190 150 7 171 184 187 222 261 24 220 200 175 168 123 164 197 178 176 162 136 190 239 162 167 185 169 141 173 200 201 181 153 160 244 209 164 175 184 197 193 162 192 246 346 310 306 138 204 272 273 302 359 31 354 340 334 306 232 177 169 165 168 174 178
317 316 313 313 313 310 295 270 268 264 287 310 315 318 327 338 96 103 65 112 262 356 63 331 40 13 8 99 218 267 305 332 9 288 146 160 192 134 167 202 165 164 184 168 196 225 186 192 182 157 153 203 215 194 164 165 202 229 158 144 129 116 136 139 147 169 79 33 257 252 193 196 272 289 325 14 31 336 314 315 301 230 183 176 173 174 178 180
316 311 310 311 308 309 295 260 259 268 310 319 322 324 329 6 79 66 61 240 280 353 354 351 25 313 346 61 267 267 259 286 334 97 103 147 223 57 113 140 108 126 190 263 233 234 273 224 149 150 178 199 203 192 176 184 199 162 109 102 66 49 49 73 100 100 88 273 253 230 194 183 264 289 295 311 311 290 284 295 280 215 188 184 181 180 180 181
312 310 308 302 297 299 286 266 266 267 332 329 329 329 355 61 65 89 183 248 278 333 341 1 6 331 348 9 294 275 239 262 8 123 153 137 93 66 67 72 77 86 26 306 293 305 326 1 173 222 205 176 160 193 217 211 200 119 80 88 83 333 20 41 357 50 110 256 259 230 181 160 212 258 260 274 278 272 262 264 258 218 196 191 181 177 181 180
312 312 304 291 276 258 246 250 263 294 312 326 337 359 78 67 29 161 241 288 329 342 333 334 333 331 332 330 274 257 232 234 187 146 167 148 144 175 162 158 167 95 339 256 270 329 303 231 245 276 237 178 160 214 299 332 123 129 119 100 102 309 20 30 305 53 195 251 255 226 152 155 225 238 270 303 294 282 258 239 255 243 203 175 148 131 134 135
316 314 305 290 265 245 243 251 267 282 299 327 358 37 82 88 232 218 281 319 342 317 305 296 314 311 308 324 311 286 283 238 206 151 145 113 152 193 214 160 165 142 179 216 193 304 296 298 281 258 276 203 162 182 259 270 152 150 152 144 143 133 82 266 270 259 262 265 273 297 152 204 274 247 278 308 306 300 292 264 306 290 164 119 93 94 88 81
319 316 305 289 264 253 250 242 247 268 289 58 58 63 91 136 230 225 316 290 263 305 314 303 312 312 309 324 315 326 13 334 233 129 128 101 134 201 255 290 179 146 131 148 158 178 198 315 255 190 248 190 171 195 200 164 151 167 165 140 146 158 150 203 225 211 255 272 305 325 177 185 252 243 266 297 306 341 7 29 31 26 86 95 79 79 89 96
323 318 301 284 273 273 250 216 209 204 162 84 64 74 125 198 246 158 243 261 283 320 315 315 328 342 336 309 303 337 17 278 4 91 119 147 166 192 195 211 203 139 122 161 217 175 152 255 254 240 211 153 188 220 157 115 127 204 145 108 159 187 153 154 196 177 184 253 314 316 270 218 233 263 279 297 326 57 58 44 58 62 69 90 90 84 72 54
329 327 300 271 269 304 200 180 173 175 153 81 68 87 178 209 211 151 191 255 299 315 321 333 11 36 340 316 318 337 334 264 36 60 94 182 199 203 189 205 194 161 151 165 205 169 121 262 275 308 301 201 200 212 166 152 183 179 132 167 216 177 128 120 211 90 83 144 279 310 281 299 320 302 301 352 31 69 72 52 59 62 53 71 97 112 97 59
334 340 319 261 219 129 148 149 144 147 111 80 92 183 221 219 178 175 211 314 272 301 29 9 333 9 354 324 305 315 329 3 13 16 216 296 265 200 193 212 172 184 185 163 210 203 143 265 284 308 280 263 205 176 189 166 148 127 177 205 190 96 92 110 165 7 45 202 272 330 250 297 343 284 318 45 62 60 70 68 64 57 47 42 26 75 102 109
327 331 344 10 142 152 143 134 130 119 82 72 84 232 227 198 183 198 228 345 290 349 77 157 264 351 22 323 282 292 323 359 349 353 161 280 270 179 179 190 129 221 208 165 191 243 132 275 293 270 252 293 349 106 343 334 69 138 178 173 110 122 178 90 146 146 114 216 286 319 261 264 205 220 297 50 47 46 65 76 80 76 76 73 21 8 85 113
317 330 1 6 155 156 141 128 114 70 66 72 132 247 226 230 250 237 233 335 347 56 105 214 233 346 342 268 250 281 320 338 270 175 126 224 243 226 218 179 144 279 219 153 161 221 103 145 284 279 258 302 3 40 290 300 339 50 120 118 53 137 167 163 151 157 163 182 257 310 312 263 228 220 208 351 9 55 76 76 82 90 93 97 100 89 83 89
311 95 351 326 158 155 142 108 50 52 69 110 190 213 237 251 272 268 251 218 186 216 221 210 213 286 288 269 252 267 305 299 201 191 204 202 203 272 299 295 162 250 42 108 131 131 64 117 244 284 313 333 354 322 223 201 188 95 142 190 292 84 137 155 95 99 129 149 178 191 301 270 249 220 262 302 20 88 95 82 77 80 80 85 89 86 89 91
24 93 333 319 153 153 131 63 39 62 85 161 203 220 270 272 288 287 269 215 192 228 221 191 205 228 244 275 276 258 289 333 10 167 244 271 97 209 300 321 143 30 26 53 75 130 117 138 198 291 353 1 254 255 224 182 177 169 175 187 180 141 125 136 255 298 101 126 165 158 201 270 261 155 289 274 133 121 108 101 90 77 76 80 77 75 88 99
75 96 318 167 154 154 92 49 2 65 116 199 234 231 275 298 283 283 287 260 199 229 241 195 221 223 215 235 254 264 323 332 318 4 231 306 101 163 300 314 111 98 75 90 249 212 140 111 118 247 272 250 257 260 247 162 137 138 158 157 144 129 120 136 199 235 112 107 142 123 138 274 271 208 331 90 121 119 109 114 115 99 89 88 85 77 76 91
111 105 337 148 161 152 48 45 324 3 178 256 280 239 247 267 263 284 316 342 297 266 339 248 226 226 226 234 256 304 333 322 314 338 306 337 343 276 310 303 202 117 94 182 257 306 88 84 70 296 298 305 298 298 319 8 54 55 2 43 90 148 136 142 174 176 139 152 151 100 169 267 273 324 64 106 95 79 96 111 121 121 114 105 103 97 80 71
133 104 66 157 184 217 45 162 296 338 286 315 347 312 299 245 232 284 314 314 301 298 321 279 259 261 274 287 235 281 306 307 12 355 31 39 330 309 338 335 227 135 104 198 197 224 240 106 106 77 349 342 339 337 340 351 27 58 332 343 351 27 92 108 127 95 111 194 152 130 212 258 283 15 107 121 84 67 79 86 101 114 115 113 104 85 69 50
109 77 15 203 216 129 99 181 157 161 283 348 355 320 337 328 269 255 229 263 281 249 259 283 292 288 304 335 329 304 318 231 308 354 42 21 321 316 355 356 15 87 52 186 129 120 141 130 129 140 164 191 214 266 262 284 329 349 338 351 352 6 72 138 133 91 163 229 113 133 210 251 284 62 138 130 95 80 83 69 63 71 73 84 91 85 79 63
118 97 344 330 355 59 116 179 109 124 239 41 3 313 352 336 300 277 200 226 317 347 350 295 326 357 5 3 356 328 332 339 14 39 41 357 304 301 335 340 12 44 42 55 54 77 107 74 92 121 138 178 197 227 238 236 18 347 335 348 350 335 334 95 100 106 190 161 68 217 216 179 154 168 149 126 105 94 87 68 62 57 44 49 68 72 72 67
115 117 154 154 349 25 27 357 77 106 179 137 93 332 334 315 312 322 339 347 347 0 20 10 23 34 2 352 356 318 329 356 21 37 10 329 287 299 312 318 14 15 21 46 26 57 100 60 70 99 93 201 223 254 263 87 80 53 352 352 350 343 353 71 108 162 151 119 292 251 190 148 169 167 128 118 103 85 74 64 63 64 54 52 66 74 71 63
117 152 164 144 157 158 33 350 101 97 82 151 143 4 342 334 343 336 319 332 1 18 36 6 8 17 340 329 323 305 342 14 18 5 338 340 353 332 324 326 15 12 23 39 5 69 108 88 146 108 64 1 358 331 15 98 104 79 46 23 5 1 19 68 136 210 135 132 205 205 137 131 152 117 89 94 90 83 80 76 72 70 62 49 50 60 59 49
94 112 310 34 111 166 156 25 93 81 56 305 323 11 351 343 345 300 278 348 356 356 64 46 329 334 344 353 73 23 7 29 356 322 319 358 5 1 347 338 341 360 28 45 11 70 105 90 147 119 79 23 10 356 48 98 115 72 38 28 19 15 28 47 41 333 78 125 143 122 102 78 17 20 68 84 89 87 82 75 66 64 66 62 57 52 40 26
106 146 178 54 62 68 58 42 67 75 32 342 353 347 317 358 338 303 282 108 42 322 35 72 306 311 347 7 45 66 88 162 195 281 247 56 20 66 351 303 304 331 353 29 4 4 81 114 220 93 86 6 345 358 35 76 111 89 39 20 17 18 23 26 28 27 29 88 104 99 95 60 355 11 65 76 83 81 73 69 65 63 68 77 78 70 51 27
106 154 133 104 66 353 2 30 63 88 29 2 357 285 321 349 320 305 289 228 165 196 219 307 311 316 5 8 359 354 251 192 204 238 221 181 190 220 234 201 179 313 329 357 6 357 59 111 38 70 98 321 323 345 359 17 74 74 36 13 4 7 20 355 342 352 334 130 116 108 118 122 2 64 68 60 65 72 68 67 73 74 71 74 79 82 78 55
84 70 60 102 86 349 1 34 43 83 75 297 244 264 289 290 301 321 309 308 335 181 219 215 177 358 16 356 316 301 285 242 235 240 218 198 212 226 255 261 213 230 281 341 36 15 83 116 103 90 122 279 315 334 352 14 40 23 0 356 337 310 302 311 331 356 341 326 129 129 145 136 128 103 85 66 60 66 66 62 68 74 70 64 59 61 66 58